Regional Weather Roundup
Issued by NWS Sioux Falls, SD

Home | Current Version | Previous Version | Text Only | Print | Product List | Glossary On
Versions: 1 2 3 4 5 6 7 8 9 10 11 12 13 14 15 16 17 18 19 20 21 22 23 24 25 26 27 28 29 30 31 32 33 34 35 36 37 38 39 40 41 42 43 44 45 46 47 48 49 50
000
ASUS43 KFSD 290610
RWRFSD

WEATHER ROUNDUP FOR SE SOUTH DAKOTA/SW MINNESOTA/NW IOWA
NATIONAL WEATHER SERVICE SIOUX FALLS SD
100 AM CDT SAT APR 29 2017

NOTE: "FAIR" INDICATES FEW OR NO CLOUDS BELOW 12,000 FEET WITH NO
SIGNIFICANT WEATHER AND OR OBSTRUCTIONS TO VISIBILITY.


SDZ038>040-050-052>070-290700-
SOUTHEAST SOUTH DAKOTA

CITY           SKY/WX    TMP DP  RH WIND       PRES   REMARKS
BROOKINGS      CLOUDY    37  24  59 N8        30.16R
CHAMBERLAIN    PTCLDY    43  24  46 N3        30.20R
6HR MIN TEMP:  42; 6HR MAX TEMP:  53;

HURON          PTCLDY    28  21  75 CALM      30.20R
6HR MIN TEMP:  27; 6HR MAX TEMP:  52;

MADISON        FAIR      32  25  74 CALM      30.16R
MITCHELL       CLOUDY    34  24  67 NW3       30.20R
6HR MIN TEMP:  34; 6HR MAX TEMP:  53;

SIOUX FALLS    CLOUDY    37  27  67 N7        30.15R
6HR MIN TEMP:  37; 6HR MAX TEMP:  49;

WINNER         MOCLDY    39  25  57 NE7       30.20R
YANKTON        CLOUDY    43  27  52 N8        30.16R
$$

MNZ071-072-080-081-089-090-097-098-290700-
SOUTHWEST MINNESOTA

CITY           SKY/WX    TMP DP  RH WIND       PRES   REMARKS
FAIRMONT       PTCLDY    37  31  78 N6        30.15R
JACKSON        PTCLDY    34  28  80 CALM      30.15R
LUVERNE        CLOUDY    34  27  75 N5        30.14S WCI  30
MARSHALL       CLOUDY    32  25  75 W6        30.17R WCI  26
6HR MIN TEMP:  31; 6HR MAX TEMP:  50;

MONTEVIDEO     PTCLDY    36  25  64 NE8       30.17R
PIPESTONE      CLOUDY    36  21  55 NE6       30.15R
REDWOOD FALLS  CLOUDY    39  25  57 CALM      30.15R
TRACY          PTCLDY    37  27  66 NW7       30.16R
WORTHINGTON    PTCLDY    34  26  72 N9        30.14  WCI  27
$$

IAZ001>003-012>014-020>022-031-032-NEZ013-014-SDZ071-290700-
NORTHWEST IOWA

CITY           SKY/WX    TMP DP  RH WIND       PRES   REMARKS
CHEROKEE       CLOUDY    39  35  84 N6        30.09F
DENISON        CLOUDY    41  37  87 NE7       30.10F
ESTHERVILLE    CLOUDY    34  31  88 N5        30.14R WCI  30
LE MARS        CLOUDY    39  34  81 CALM      30.14F
ORANGE CITY    CLOUDY    39  32  75 NE6       30.11F
SHELDON        CLOUDY    36  30  80 NE8       30.11F
SIOUX CITY     CLOUDY    44  35  70 N6        30.14R
6HR MIN TEMP:  44; 6HR MAX TEMP:  47;

SPENCER        CLOUDY    37  31  78 NE7       30.13R
6HR MIN TEMP:  35; 6HR MAX TEMP:  48;

$$

ABBREVIATIONS USED IN REMARKS
   TC - TEMPERATURE IN CELSIUS
  WCI - WIND CHILL INDEX
   HX - HEAT INDEX
  VSB - VISIBILITY




USA.gov is the U.S. government's official web portal to all federal, state and local government web resources and services.